Time,TemperatureF,DewpointF,PressureIn,WindDirection,WindDirectionDegrees,WindSpeedMPH,WindSpeedGustMPH,Humidity,HourlyPrecipIn,Conditions,Clouds,dailyrainin,SoftwareType,DateUTC
2013-02-15 00:00:00,7.5,-4.2,29.91,WSW,248,0.0,0.0,58,0.00,,SKC,0.00,VWS V14.01,2013-02-15 06:00:00,
2013-02-15 00:20:00,7.2,-4.5,29.91,WSW,248,0.0,0.0,58,0.00,,SKC,0.00,VWS V14.01,2013-02-15 06:20:00,
2013-02-15 00:40:00,7.2,-4.5,29.91,South,180,0.0,0.0,58,0.00,,SKC,0.00,VWS V14.01,2013-02-15 06:40:00,
2013-02-15 01:00:00,6.4,-5.2,29.91,South,180,0.0,0.0,58,0.00,,SKC,0.00,VWS V14.01,2013-02-15 07:00:00,
2013-02-15 01:20:00,6.1,-5.5,29.91,South,180,0.0,0.0,58,0.00,,SKC,0.00,VWS V14.01,2013-02-15 07:20:00,
2013-02-15 01:40:00,6.3,-5.3,29.91,South,180,0.0,0.0,58,0.00,,SKC,0.00,VWS V14.01,2013-02-15 07:40:00,
2013-02-15 02:00:00,6.4,-5.2,29.91,South,180,0.0,0.0,58,0.00,,SKC,0.00,VWS V14.01,2013-02-15 08:00:00,
2013-02-15 02:20:00,6.4,-5.2,29.94,South,180,0.0,0.0,58,0.00,,SKC,0.00,VWS V14.01,2013-02-15 08:20:00,
2013-02-15 02:40:00,6.4,-5.2,29.94,South,180,0.0,0.0,58,0.00,,SKC,0.00,VWS V14.01,2013-02-15 08:40:00,
2013-02-15 03:00:00,6.4,-5.2,29.94,South,180,0.0,0.0,58,0.00,,SKC,0.00,VWS V14.01,2013-02-15 09:00:00,
2013-02-15 03:20:00,6.1,-5.5,29.94,South,180,0.0,0.0,58,0.00,,SKC,0.00,VWS V14.01,2013-02-15 09:20:00,
2013-02-15 03:40:00,5.7,-5.9,29.94,SSW,202,1.8,2.7,58,0.00,,SKC,0.00,VWS V14.01,2013-02-15 09:40:00,
2013-02-15 04:00:00,6.3,-5.3,29.94,SSW,202,1.3,3.5,58,0.00,,SKC,0.00,VWS V14.01,2013-02-15 10:00:00,
2013-02-15 04:20:00,7.5,-4.2,29.94,SSW,202,1.8,5.5,58,0.00,,SKC,0.00,VWS V14.01,2013-02-15 10:20:00,
2013-02-15 04:40:00,7.5,-4.2,29.94,SW,225,0.0,2.7,58,0.00,,SKC,0.00,VWS V14.01,2013-02-15 10:40:00,
2013-02-15 05:00:00,6.4,-5.2,29.94,SW,225,1.0,2.3,58,0.00,,SKC,0.00,VWS V14.01,2013-02-15 11:00:00,
2013-02-15 05:20:00,5.7,-5.9,29.94,SW,225,0.0,2.0,58,0.00,,SKC,0.00,VWS V14.01,2013-02-15 11:20:00,
2013-02-15 05:40:00,4.6,-6.9,29.94,SW,225,0.0,2.3,58,0.00,,SKC,0.00,VWS V14.01,2013-02-15 11:40:00,
2013-02-15 06:00:00,3.7,-7.7,29.97,SW,225,0.0,0.0,58,0.00,,SKC,0.00,VWS V14.01,2013-02-15 12:00:00,
2013-02-15 06:20:00,2.8,-8.6,29.97,SSW,202,0.0,0.0,58,0.00,,SKC,0.00,VWS V14.01,2013-02-15 12:20:00,
2013-02-15 06:40:00,2.7,-8.7,29.97,SSW,202,0.0,2.3,58,0.00,,SKC,0.00,VWS V14.01,2013-02-15 12:40:00,
2013-02-15 07:00:00,3.2,-8.2,29.97,SSW,202,0.0,2.0,58,0.00,,SKC,0.00,VWS V14.01,2013-02-15 13:00:00,
2013-02-15 07:20:00,3.9,-7.6,30.00,SSW,202,0.0,2.7,58,0.00,,SKC,0.00,VWS V14.01,2013-02-15 13:20:00,
2013-02-15 07:40:00,5.4,-6.2,30.00,WSW,248,0.0,3.5,58,0.00,,SKC,0.00,VWS V14.01,2013-02-15 13:40:00,
2013-02-15 08:00:00,6.1,-5.5,30.00,West,270,0.0,4.7,58,0.00,,SKC,0.00,VWS V14.01,2013-02-15 14:00:00,
2013-02-15 08:20:00,6.4,-5.2,30.00,SSW,202,1.0,6.3,58,0.00,,SKC,0.00,VWS V14.01,2013-02-15 14:20:00,
2013-02-15 08:40:00,6.8,-4.8,30.00,WSW,248,1.5,6.3,58,0.00,,SKC,0.00,VWS V14.01,2013-02-15 14:40:00,
2013-02-15 09:00:00,7.2,-4.5,30.03,NNW,338,1.5,8.2,58,0.00,,SKC,0.00,VWS V14.01,2013-02-15 15:00:00,
2013-02-15 09:20:00,7.9,-3.8,30.03,NNW,338,4.1,9.8,58,0.00,,SKC,0.00,VWS V14.01,2013-02-15 15:20:00,
2013-02-15 09:40:00,9.1,-2.6,30.03,WSW,248,1.8,8.2,58,0.00,,SKC,0.00,VWS V14.01,2013-02-15 15:40:00,
2013-02-15 10:00:00,9.7,-2.1,30.03,SSW,202,3.6,9.8,58,0.00,,SKC,0.00,VWS V14.01,2013-02-15 16:00:00,
2013-02-15 10:20:00,10.6,-1.3,30.03,South,180,0.0,6.7,58,0.00,,SKC,0.00,VWS V14.01,2013-02-15 16:20:00,
2013-02-15 10:40:00,12.2,0.3,30.03,SSW,202,2.3,8.2,58,0.00,,SKC,0.00,VWS V14.01,2013-02-15 16:40:00,
2013-02-15 11:00:00,13.6,1.6,30.03,South,180,3.1,9.8,58,0.00,,SKC,0.00,VWS V14.01,2013-02-15 17:00:00,
2013-02-15 11:20:00,13.6,1.2,30.03,NNW,338,4.9,11.0,57,0.00,,SKC,0.00,VWS V14.01,2013-02-15 17:20:00,
2013-02-15 11:40:00,14.4,0.4,30.03,NNW,338,3.1,10.6,53,0.00,,SKC,0.00,VWS V14.01,2013-02-15 17:40:00,
2013-02-15 12:00:00,16.2,2.0,30.00,NNW,338,1.3,8.6,53,0.00,,SKC,0.00,VWS V14.01,2013-02-15 18:00:00,
2013-02-15 12:20:00,15.4,0.1,30.00,NNE,22,3.3,11.4,50,0.00,,SKC,0.00,VWS V14.01,2013-02-15 18:20:00,
2013-02-15 12:40:00,15.4,-0.3,30.00,SSW,202,0.0,15.3,49,0.00,,SKC,0.00,VWS V14.01,2013-02-15 18:40:00,
2013-02-15 13:00:00,16.7,0.4,30.00,WNW,292,2.3,10.6,48,0.00,,SKC,0.00,VWS V14.01,2013-02-15 19:00:00,
2013-02-15 13:20:00,17.1,0.3,30.00,WNW,292,3.3,10.2,47,0.00,,SKC,0.00,VWS V14.01,2013-02-15 19:20:00,
2013-02-15 13:40:00,16.5,-0.6,30.00,WSW,248,2.8,12.5,46,0.00,,SKC,0.00,VWS V14.01,2013-02-15 19:40:00,
2013-02-15 14:00:00,16.9,-0.3,30.00,NNW,338,5.7,10.6,46,0.00,,SKC,0.00,VWS V14.01,2013-02-15 20:00:00,
2013-02-15 14:20:00,16.5,-0.6,30.00,NNW,338,3.1,15.3,46,0.00,,SKC,0.00,VWS V14.01,2013-02-15 20:20:00,
2013-02-15 14:40:00,16.5,-0.6,30.00,NW,315,3.1,13.3,46,0.00,,SKC,0.00,VWS V14.01,2013-02-15 20:40:00,
2013-02-15 15:00:00,16.0,-1.1,30.00,South,180,2.3,13.7,46,0.00,,SKC,0.00,VWS V14.01,2013-02-15 21:00:00,
2013-02-15 15:20:00,15.3,-1.3,30.00,West,270,1.3,13.7,47,0.00,,SKC,0.00,VWS V14.01,2013-02-15 21:20:00,
2013-02-15 15:40:00,14.7,-1.8,30.00,WNW,292,3.9,13.3,47,0.00,,SKC,0.00,VWS V14.01,2013-02-15 21:40:00,
2013-02-15 16:00:00,15.6,-1.0,30.00,WSW,248,1.3,8.6,47,0.00,,SKC,0.00,VWS V14.01,2013-02-15 22:00:00,
2013-02-15 16:20:00,15.4,-1.2,30.00,NW,315,4.4,11.0,47,0.00,,SKC,0.00,VWS V14.01,2013-02-15 22:20:00,
2013-02-15 16:40:00,14.9,-1.7,30.00,NNW,338,1.5,9.8,47,0.00,,SKC,0.00,VWS V14.01,2013-02-15 22:40:00,
2013-02-15 17:00:00,13.8,-2.2,30.00,WSW,248,3.1,8.2,48,0.00,,SKC,0.00,VWS V14.01,2013-02-15 23:00:00,
2013-02-15 17:20:00,13.3,-2.7,30.00,WSW,248,0.0,7.0,48,0.00,,SKC,0.00,VWS V14.01,2013-02-15 23:20:00,
2013-02-15 17:40:00,12.7,-3.2,30.00,South,180,0.0,6.3,48,0.00,,SKC,0.00,VWS V14.01,2013-02-15 23:40:00,
2013-02-15 18:00:00,12.2,-3.7,30.03,West,270,2.3,7.0,48,0.00,,SKC,0.00,VWS V14.01,2013-02-16 00:00:00,
2013-02-15 18:20:00,11.8,-4.1,30.00,WNW,292,1.3,8.2,48,0.00,,SKC,0.00,VWS V14.01,2013-02-16 00:20:00,
2013-02-15 18:40:00,11.5,-4.4,30.00,NW,315,1.8,5.5,48,0.00,,SKC,0.00,VWS V14.01,2013-02-16 00:40:00,
2013-02-15 19:00:00,11.3,-4.6,30.03,SSE,158,0.0,5.1,48,0.00,,SKC,0.00,VWS V14.01,2013-02-16 01:00:00,
2013-02-15 19:20:00,11.1,-4.7,30.03,NNW,338,2.8,6.7,48,0.00,,SKC,0.00,VWS V14.01,2013-02-16 01:20:00,
2013-02-15 19:40:00,10.9,-4.9,30.03,NNW,338,1.8,5.5,48,0.00,,SKC,0.00,VWS V14.01,2013-02-16 01:40:00,
2013-02-15 20:00:00,10.6,-5.2,30.03,NNW,338,3.1,6.7,48,0.00,,SKC,0.00,VWS V14.01,2013-02-16 02:00:00,
2013-02-15 20:20:00,10.2,-5.6,30.03,NNW,338,2.6,7.0,48,0.00,,SKC,0.00,VWS V14.01,2013-02-16 02:20:00,
2013-02-15 20:40:00,9.9,-5.9,30.03,NNW,338,0.0,6.7,48,0.00,,SKC,0.00,VWS V14.01,2013-02-16 02:40:00,
2013-02-15 21:00:00,9.3,-6.4,30.03,SSE,158,0.0,5.9,48,0.00,,SKC,0.00,VWS V14.01,2013-02-16 03:00:00,
2013-02-15 21:20:00,8.6,-7.1,30.03,SSW,202,0.0,2.0,48,0.00,,SKC,0.00,VWS V14.01,2013-02-16 03:20:00,
2013-02-15 21:40:00,7.9,-7.7,30.03,WNW,292,0.0,5.5,48,0.00,,SKC,0.00,VWS V14.01,2013-02-16 03:40:00,
2013-02-15 22:00:00,7.2,-8.4,30.03,SSE,158,0.0,3.5,48,0.00,,SKC,0.00,VWS V14.01,2013-02-16 04:00:00,
2013-02-15 22:20:00,6.4,-9.1,30.03,SSE,158,0.0,0.0,48,0.00,,SKC,0.00,VWS V14.01,2013-02-16 04:20:00,
2013-02-15 22:40:00,5.5,-9.9,30.00,SSE,158,0.0,0.0,48,0.00,,SKC,0.00,VWS V14.01,2013-02-16 04:40:00,
2013-02-15 23:00:00,4.6,-10.7,30.00,SSE,158,0.0,0.0,48,0.00,,SKC,0.00,VWS V14.01,2013-02-16 05:00:00,
2013-02-15 23:20:00,3.7,-11.6,30.00,SSE,158,0.0,0.0,48,0.00,,SKC,0.00,VWS V14.01,2013-02-16 05:20:00,
2013-02-15 23:40:00,3.0,-12.2,30.00,SSE,158,0.0,0.0,48,0.00,,SKC,0.00,VWS V14.01,2013-02-16 05:40:00,